DECAYED

STARLINK-2067, 47674 (Decayed)

Orbit data source: Space-Track

STARLINK-2067, 47674 was a payload satellite owned by SpaceX/Seattle (US) in LEO that was launched on Tue, 16 Feb 2021 UTC via an FALCON 9 launch vehicle from the Air Force Eastern Test Range (AFETR). Payload-class satellites include a variety of spacecraft equipped with specific instruments for various scientific and technological missions. These include communications satellites like Starlink; space stations such as the ISS; scientific satellites like the Hubble; Earth observation satellites from companies like Planet Labs, Umbra, and HawkEye 360; GPS; miniature CubeSats for education and research; and military/defense satellites.

Not visible in the next 10 days
Identifier
47674, 2021-012BG
Orbit
Decayed
Country
Flag of USUS
Related business
Manufacturer
SpaceX/Seattle
Mission
Decayed Commercial Communications
Bus & Motor
STARLINK, Unknown motor
Mass
260 kg wet, ~248 kg dry
Launch date (UTC)
2021-02-16 (5 years ago)
Launch vehicle
FALCON 9
Launch site
Air Force Eastern Test Range (AFETR)
Object type
Payload
Rocket body
Debris
Shape & HBR
Box + 1 Pan, 10.1 m
Radar Cross Section
13.562 m², Large (>1 m²)

Expand to show TLE details & history
Last TLE update: 1 year ago

TLE from 1 year ago
0 STARLINK-2067
1 47674U 21012BG  25017.19563756  .42225590  12634-4  26372-3 0  9993
2 47674  53.0175  92.1467 0008678 139.6882 321.4775 16.53466435217378
Epoch: 2025-01-17T04:41Z
TLE epoch observation values (Epoch: 2025-01-17T04:41:43.085Z)
Latitude
51.77431°
Longitude
12.94346°
Altitude
131.958 km
Speed
7.836 km/s
True Right ascension
13h 20m 56s
True Declination
51° 35' 27"
Sunlit
Object was in full shadow at epoch
Visualization orbit readout
Latitude
Unknown
Longitude
Unknown
Altitude
Unknown
Speed
Unknown
Apparent Right ascension
Unknown
Apparent Declination
Unknown
Sunlit
N/A
Visualization observer readout
Local Sidereal Time
23:08:21
Azimuth
Unknown
Elevation
Unknown
Doppler factor
Unknown
Orbital elements
Apogee altitude
136.165 km
Perigee altitude
124.869 km
Semi-major axis
6,508.654 km
Eccentricity
0.00087
Inclination
53.0175°
RAAN
92.1467°
Arg. of periapsis
139.6882°
True anomaly
321.41551°
Mean anomaly
321.4775°
Eccentric anomaly
321.44651°
Mean motion
4.13339 °/min
Orbital period
87.1 mins
BSTAR
0.00026372
Loading maneuver chart data...
Computing Atmospheric mass density...

Documentation

Showing up to 5 results
|